Location: Fort Worth, Tx
(32.7431°N, 97.3695°W)
Time: 02:09:52
(UTC-05:00)

A-11 Canister half - Pass Details

Date: 02 March 2024
Orbit: 1525 x 1682 km, 47.3° (Epoch: 11 November)

Event Time Altitude Azimuth Distance (km) Brightness Sun altitude
Rises 21:04:29 0° 254° (WSW) 4,825 12.8 -21.0°
Reaches altitude 10° 21:07:47 10° 260° (W) 3,818 12.1 -21.7°
Maximum altitude 21:17:06 51° 334° (NNW) 1,912 9.6 -23.7°
Enters shadow 21:24:18 17° 44° (NE) 3,169 10.3 -25.2°
